Terug naar catalogus

HAWK-12A

ActiefMilitairSSO
NORAD 64623·PAYLOAD·🇺🇸 United States

Gelanceerd Jun 26, 2025 vanaf Rocket Lab Launch Complex 1

Loading…

Volgende Passages (komende 24 uur)

TLE

VersSource: Space-Track

Epoch: Sep 14, 2026, 11:07 UTC

1 64623U 25138C   26257.46332108  .00002830  00000-0  13913-3 0  9992
2 64623  97.4453 258.8420 0013663 179.4175 180.7078 15.18774789 67413

Volg HAWK-12A in realtime met AllMySat

Download on the App Store